This demonstration page uses our WeatherBlox Daily Observations layout. Learn more.

Left ArrowRight Arrow

38.83388, -104.82136

Hourly Observations for January 8, 2015

Temp ( °F °C ) Dew Point ( °F °C ) Humidity (%) Winds ( mph kmh ) Pressure ( in mb ) Visibility ( mi km ) Precip ( " mm )
12:56 am 00:56 Clear 49 9.4 15 -9.3 26 26 S 10 17 30.23 1024 10 16 N/A
1:56 am 01:56 Clear 43 5.9 18 -7.8 37 37 VRB 6 9 30.26 1025 10 16 N/A
2:56 am 02:56 Clear 45 7.3 16 -8.9 31 31 WNW 10 17 30.23 1024 10 16 N/A
3:56 am 03:56 Clear 46 7.8 12 -11.1 25 25 W 7 11 30.19 1023 10 16 N/A
4:56 am 04:56 Clear 47 8.2 15 -9.3 28 28 VRB 3 6 30.19 1022 10 16 N/A
6:56 am 06:56 Clear 49 9.3 15 -9.7 25 25 WNW 13 20 30.18 1022 10 16 N/A
7:31 am 07:31 Sunny 52 11 14 -10 22 22 NNW 15 24 29.83 1010 10 16 N/A
7:56 am 07:56 Sunny 54 12.1 10 -12.1 17 17 VRB 3 6 30.16 1021 10 16 N/A
8:56 am 08:56 Sunny 52 10.9 15 -9.2 24 24 N 7 11 30.18 1022 10 16 N/A
9:56 am 09:56 Sunny 53 11.8 12 -10.9 19 19 S 7 11 30.10 1019 10 16 N/A
11:56 am 11:56 Sunny 48 9 28 -2.5 45 45 SE 12 19 30.01 1016 10 16 N/A
12:56 pm 12:56 Sunny 47 8.5 27 -2.9 45 45 SE 12 19 29.97 1015 10 16 N/A
1:56 pm 13:56 Sunny 46 7.9 25 -3.7 44 44 SSE 17 28 30.02 1017 10 16 N/A
3:56 pm 15:56 Sunny 42 5.3 26 -3.2 55 55 SSE 14 22 30.09 1019 10 16 N/A
4:56 pm 16:56 Clear 40 4.3 25 -3.7 56 56 SSE 24 39 30.08 1019 10 16 N/A
6:56 pm 18:56 Cloudy 35 1.9 25 -4 65 65 SSE 9 15 30.17 1022 10 16 N/A
8:11 pm 20:11 Mostly Cloudy 30 -1 27 -3 86 86 S 5 7 30.30 1026 10 16 N/A
8:21 pm 20:21 Mostly Cloudy 30 -1 27 -3 86 86 S 5 7 30.30 1026 10 16 N/A
8:56 pm 20:56 Cloudy 29 -1.6 27 -2.9 91 91 S 3 6 30.23 1024 10 16 N/A
9:01 pm 21:01 Cloudy 28 -2 27 -3 93 93 SSE 6 9 30.33 1027 10 16 N/A
9:06 pm 21:06 Cloudy 28 -2 27 -3 93 93 SSE 6 9 30.33 1027 10 16 N/A
9:38 pm 21:38 Mostly Cloudy with Light Snow 28 -2 27 -3 93 93 SE 10 17 30.33 1027 5 8 N/A
9:48 pm 21:48 Mostly Cloudy with Light Snow Showers 28 -2 27 -3 93 93 SSE 13 20 30.33 1027 3 5 N/A
9:52 pm 21:52 Mostly Cloudy with Freezing Fog 27 -3 27 -3 100 100 SE 12 19 30.36 1028 0 0 N/A
10:56 pm 22:56 Mostly Cloudy with Freezing Fog 26 -3.5 26 -3.4 100 100 SSE 16 26 30.24 1024 1 2 N/A
11:11 pm 23:11 Mostly Cloudy with Light Snow 25 -4 23 -5 93 93 ESE 12 19 30.42 1030 1 2 N/A
11:19 pm 23:19 Mostly Cloudy with Light Snow 21 -6 19 -7 93 93 E 2 4 30.48 1032 3 5 N/A
11:21 pm 23:21 Mostly Cloudy 21 -6 21 -6 100 100 ESE 7 11 30.48 1032 1 1 N/A
11:23 pm 23:23 Mostly Cloudy 21 -6 21 -6 100 100 ESE 7 11 30.48 1032 1 1 N/A
11:24 pm 23:24 Mostly Cloudy with Light Snow 21 -6 21 -6 100 100 ESE 7 11 30.48 1032 1 1 N/A
11:56 pm 23:56 Mostly Cloudy with Light Snow 21 -6.3 20 -6.4 99 99 SE 8 13 30.32 1027 1 1 N/A
11:58 pm 23:58 Mostly Cloudy with Light Freezing Rain 21 -6 19 -7 93 93 SE 9 15 30.50 1033 1 1 N/A

Powered by AerisWeather